Marion-Critt Cnty AP, Marion,, KY

4:07 AM CDT on May 23, 2017 (GMT -0500)
Marion-Critt Cnty AP, Marion,

Weather History for K5M9 - February, 2014

Change the Weather History Date:

Sunday, February 16, 2014

  Actual Average (KEHR) Record (KEHR)
Temperature  
Mean Temperature 32 °F -  
Max Temperature 38 °F 47 °F 71 °F (2011)
Min Temperature 25 °F 28 °F -1 °F (1958)
Degree Days  
Heating Degree Days 34    
Moisture  
Dew Point 24 °F    
Average Humidity 79    
Maximum Humidity 89    
Minimum Humidity 65    
Precipitation  
Precipitation 0.00 in - - ()
Sea Level Pressure  
Sea Level Pressure 30.13 in    
Wind  
Wind Speed 6 mph (North)    
Max Wind Speed 12 mph    
Max Gust Speed 16 mph    
Visibility 10 miles    
Events      
Averages and records for this station are not official NWS values.
T = Trace of Precipitation, MM = Missing Value Source: NWS Daily Summary

Daily Weather History Graph

Daily Weather History Graph

Search for Another Location

Airport or City:

Trip Planner

Search our weather history database for the weather conditions in past years. The results will help you decide how hot, cold, wet, or windy it might be!

Date:

Astronomy

Feb. 16, 2014 Rise Set
Actual Time 6:40 AM CST 5:33 PM CST
Civil Twilight 6:13 AM CST 5:59 PM CST
Nautical Twilight 5:43 AM CST 6:30 PM CST
Astronomical Twilight 5:12 AM CST 7:00 PM CST
Moon 7:26 PM CST (2/16) 7:12 AM CST (2/16)
Length of Visible Light 11h 46m
Length of Day
10h 52m
Full, 97% of the Moon is Illuminated
Feb 16
Full
Feb 22
Last Quarter
Mar 1
New
Mar 8
First Quarter
Mar 16
Full

Hourly Weather History & Observations

Time (CST) Temp. Windchill Dew Point Humidity Pressure Visibility Wind Dir Wind Speed Gust Speed Precip Events Conditions
12:15 AM 28.2 °F 23.1 °F 22.8 °F 80% 30.01 in 10.0 mi SW 4.6 mph - N/A   Scattered Clouds
12:35 AM 28.2 °F 22.0 °F 22.1 °F 78% 30.02 in 10.0 mi WSW 5.8 mph - N/A   Clear
12:55 AM 28.6 °F 23.5 °F 21.7 °F 76% 30.01 in 10.0 mi SSW 4.6 mph - N/A   Clear
1:15 AM 27.7 °F 21.3 °F 21.7 °F 78% 30.01 in 10.0 mi SW 5.8 mph - N/A   Clear
1:35 AM 28.2 °F 23.1 °F 21.9 °F 77% 30.01 in 10.0 mi SW 4.6 mph - N/A   Clear
1:55 AM 27.0 °F 20.5 °F 21.7 °F 81% 30.01 in 10.0 mi SW 5.8 mph - N/A   Clear
2:15 AM 26.6 °F 19.1 °F 21.6 °F 81% 30.01 in 10.0 mi SW 6.9 mph - N/A   Clear
2:35 AM 27.7 °F 18.8 °F 21.9 °F 79% 30.00 in 10.0 mi SW 9.2 mph - N/A   Clear
2:55 AM 28.4 °F 23.3 °F 21.7 °F 76% 29.99 in 10.0 mi SW 4.6 mph - N/A   Clear
3:15 AM 26.4 °F - 21.4 °F 81% 29.99 in 10.0 mi Calm Calm - N/A   Clear
3:35 AM 26.4 °F - 21.6 °F 82% 29.99 in 10.0 mi Calm Calm - N/A   Clear
3:55 AM 26.6 °F 21.2 °F 21.9 °F 82% 29.99 in 10.0 mi SW 4.6 mph - N/A   Clear
4:15 AM 26.1 °F 20.5 °F 21.9 °F 84% 30.00 in 10.0 mi WSW 4.6 mph - N/A   Clear
4:35 AM 27.3 °F 19.9 °F 22.1 °F 81% 30.01 in 10.0 mi WSW 6.9 mph - N/A   Clear
4:55 AM 27.1 °F 20.7 °F 22.1 °F 81% 30.01 in 10.0 mi SW 5.8 mph - N/A   Clear
5:15 AM 26.6 °F 19.1 °F 21.9 °F 82% 30.02 in 10.0 mi WSW 6.9 mph - N/A   Clear
5:35 AM 28.2 °F 22.0 °F 23.7 °F 83% 30.02 in 10.0 mi WSW 5.8 mph - N/A   Clear
5:55 AM 27.3 °F 22.0 °F 23.7 °F 86% 30.02 in 10.0 mi West 4.6 mph - N/A   Clear
6:15 AM 28.2 °F 21.0 °F 23.9 °F 84% 30.03 in 10.0 mi West 6.9 mph - N/A   Clear
6:35 AM 27.5 °F 21.1 °F 23.7 °F 86% 30.03 in 10.0 mi WNW 5.8 mph - N/A   Clear
6:55 AM 28.0 °F 20.8 °F 23.9 °F 84% 30.04 in 10.0 mi WNW 6.9 mph - N/A   Clear
7:15 AM 29.1 °F 23.0 °F 24.8 °F 84% 30.04 in 10.0 mi NW 5.8 mph - N/A   Clear
7:35 AM 29.7 °F 22.8 °F 24.8 °F 82% 30.05 in 10.0 mi NW 6.9 mph - N/A   Clear
7:55 AM 30.0 °F 23.2 °F 25.0 °F 82% 30.07 in 10.0 mi NW 6.9 mph - N/A   Clear
8:15 AM 31.1 °F 24.5 °F 25.0 °F 78% 30.09 in 10.0 mi NNW 6.9 mph - N/A   Clear
8:35 AM 31.6 °F 25.1 °F 25.0 °F 76% 30.09 in 10.0 mi NNW 6.9 mph - N/A   Clear
8:55 AM 32.2 °F 25.0 °F 25.0 °F 75% 30.11 in 10.0 mi NNW 8.1 mph - N/A   Clear
9:15 AM 33.1 °F 27.7 °F 25.5 °F 74% 30.12 in 10.0 mi NNW 5.8 mph - N/A   Clear
9:35 AM 34.0 °F 26.6 °F 25.5 °F 71% 30.13 in 10.0 mi North 9.2 mph - N/A   Clear
9:55 AM 34.7 °F 28.1 °F 25.0 °F 68% 30.15 in 10.0 mi NNW 8.1 mph - N/A   Clear
10:15 AM 35.8 °F 28.8 °F 25.3 °F 66% 30.16 in 10.0 mi NNW 9.2 mph - N/A   Clear
10:35 AM 36.3 °F 30.1 °F 25.7 °F 65% 30.16 in 10.0 mi North 8.1 mph - N/A   Clear
10:55 AM 36.7 °F 30.5 °F 25.9 °F 65% 30.17 in 10.0 mi North 8.1 mph - N/A   Scattered Clouds
11:15 AM 37.9 °F 32.7 °F 27.5 °F 66% 30.17 in 10.0 mi North 6.9 mph - N/A   Scattered Clouds
11:35 AM 38.5 °F 32.1 °F 28.4 °F 67% 30.17 in 10.0 mi North 9.2 mph - N/A   Scattered Clouds
11:55 AM 37.9 °F 32.1 °F 28.0 °F 68% 30.17 in 10.0 mi North 8.1 mph - N/A   Mostly Cloudy
12:15 PM 37.9 °F 33.5 °F 27.9 °F 67% 30.17 in 10.0 mi North 5.8 mph - N/A   Mostly Cloudy
12:35 PM 37.6 °F 31.0 °F 27.7 °F 67% 30.17 in 10.0 mi NNW 9.2 mph - N/A   Mostly Cloudy
12:55 PM 37.2 °F 30.6 °F 27.9 °F 69% 30.16 in 10.0 mi NNE 9.2 mph - N/A   Scattered Clouds
1:15 PM 36.0 °F 29.0 °F 27.7 °F 72% 30.18 in 10.0 mi NNW 9.2 mph - N/A   Mostly Cloudy
1:35 PM 35.6 °F 30.7 °F 27.9 °F 73% 30.17 in 10.0 mi North 5.8 mph - N/A   Overcast
1:55 PM 35.1 °F 28.6 °F 27.0 °F 72% 30.18 in 10.0 mi North 8.1 mph - N/A   Overcast
2:15 PM 35.2 °F 28.1 °F 27.1 °F 72% 30.17 in 10.0 mi North 9.2 mph - N/A   Mostly Cloudy
2:35 PM 34.7 °F 28.1 °F 27.1 °F 74% 30.18 in 10.0 mi North 8.1 mph - N/A   Overcast
2:55 PM 34.7 °F 28.1 °F 27.0 °F 73% 30.19 in 10.0 mi NNW 8.1 mph - N/A   Overcast
3:15 PM 33.4 °F 26.6 °F 26.6 °F 76% 30.19 in 10.0 mi North 8.1 mph - N/A   Overcast
3:35 PM 32.9 °F 29.8 °F 26.6 °F 78% 30.20 in 10.0 mi North 3.5 mph - N/A   Overcast
3:55 PM 32.2 °F 24.4 °F 26.1 °F 78% 30.20 in 10.0 mi NE 9.2 mph - N/A   Overcast
4:15 PM 32.2 °F 25.8 °F 26.1 °F 78% 30.20 in 10.0 mi NE 6.9 mph - N/A   Overcast
4:35 PM 31.3 °F 24.7 °F 25.7 °F 80% 30.20 in 10.0 mi NE 6.9 mph - N/A   Overcast
4:55 PM 31.1 °F 25.4 °F 25.7 °F 80% 30.20 in 10.0 mi NNE 5.8 mph - N/A   Overcast
5:15 PM 30.6 °F 23.8 °F 25.3 °F 81% 30.21 in 10.0 mi NNE 6.9 mph - N/A   Mostly Cloudy
5:35 PM 30.2 °F 22.6 °F 25.3 °F 82% 30.22 in 10.0 mi NNE 8.1 mph - N/A   Overcast
5:55 PM 29.3 °F 20.8 °F 25.3 °F 85% 30.21 in 10.0 mi ENE 9.2 mph - N/A   Overcast
6:15 PM 28.4 °F 22.2 °F 24.4 °F 85% 30.23 in 10.0 mi NNE 5.8 mph - N/A   Overcast
6:35 PM 28.4 °F 24.6 °F 24.3 °F 84% 30.24 in 10.0 mi NNE 3.5 mph - N/A   Overcast
6:55 PM 28.4 °F 22.2 °F 24.4 °F 85% 30.24 in 10.0 mi NNE 5.8 mph - N/A   Overcast
7:15 PM 28.4 °F 21.2 °F 24.4 °F 85% 30.24 in 10.0 mi NE 6.9 mph - N/A   Overcast
7:35 PM 28.0 °F 20.8 °F 24.3 °F 86% 30.22 in 10.0 mi ENE 6.9 mph - N/A   Overcast
7:55 PM 28.2 °F 20.2 °F 24.6 °F 86% 30.22 in 10.0 mi NE 8.1 mph - N/A   Overcast
8:15 PM 28.0 °F 20.8 °F 24.3 °F 86% 30.24 in 7.0 mi NE 6.9 mph - N/A   Overcast
8:35 PM 27.3 °F 18.4 °F 23.9 °F 87% 30.23 in 7.0 mi NE 9.2 mph - N/A   Overcast
8:55 PM 27.5 °F 20.2 °F 24.4 °F 88% 30.22 in 7.0 mi ENE 6.9 mph - N/A   Mostly Cloudy
9:15 PM 27.5 °F 20.2 °F 24.3 °F 88% 30.23 in 7.0 mi ENE 6.9 mph - N/A   Scattered Clouds
9:35 PM 27.0 °F 19.5 °F 23.9 °F 88% 30.22 in 7.0 mi ENE 6.9 mph - N/A   Clear
9:55 PM 26.6 °F 18.2 °F 23.7 °F 89% 30.21 in 7.0 mi ENE 8.1 mph - N/A   Clear
10:15 PM 26.4 °F 17.3 °F 23.5 °F 89% 30.21 in 7.0 mi ENE 9.2 mph - N/A   Clear
10:35 PM 25.9 °F 18.2 °F 23.0 °F 89% 30.20 in 7.0 mi ENE 6.9 mph - N/A   Clear
10:55 PM 25.9 °F 18.2 °F 22.6 °F 88% 30.20 in 7.0 mi ENE 6.9 mph - N/A   Clear
11:15 PM 26.1 °F 18.4 °F 22.3 °F 86% 30.20 in 7.0 mi East 6.9 mph - N/A   Clear
11:35 PM 26.1 °F 16.2 °F 22.1 °F 85% 30.20 in 7.0 mi ENE 10.4 mph - N/A   Scattered Clouds
11:55 PM 26.1 °F 15.6 °F 22.1 °F 85% 30.19 in 7.0 mi ENE 11.5 mph 16.1 mph N/A   Scattered Clouds